QAEM 100 R/B, 61071

Orbit data source: Space-Track

QAEM 100 R/B, 61071 is space debris in LEO originally from a launch on Sat, 14 Sep 2024 UTC launched from the Sharud Missile Test Site (SMTS). Debris objects in space refer to the collection of defunct objects orbiting the Earth. Examples of debris include non-operational satellites, rocket bodies, and fragments generated from explosions, collisions, or faulty payload assembly.

Loading next visibility...
Identifier
61071, 2024-165A
Orbit
LEO
Country
Flag of IRIR / IRAN
Related business
Flag of IRIslamic Revolutionary Guard Corps (IRGC) (IR)
Manufacturer
IRGC
Mission
Spacecraft
Bus & Motor
Unknown
Mass
~200 kg wet, ~200 kg dry
Launch date (UTC)
2024-09-14 (2 years ago)
Launch vehicle
Unknown
Launch site
Sharud Missile Test Site (SMTS)
Object type
Payload
Rocket body
Debris
Shape & HBR
Unknown shape, 0.8 m
Radar Cross Section
Large (>1 m²)

Expand to show TLE details & history
Last TLE update: 11 hours ago

TLE from 11 hours ago
0 QAEM 100 R/B
1 61071U 24165A   26171.45059464  .00002485  00000-0  13625-3 0  9996
2 61071  64.0733  20.6974 0068375 304.2354  55.2297 15.14970611 97357
Epoch: 2026-06-20T10:48Z
TLE epoch observation values (Epoch: 2026-06-20T10:48:51.376Z)
Latitude
-0.00008°
Longitude
-50.18175°
Altitude
496.35 km
Speed
7.632 km/s
True Right ascension
01h 22m 47s
True Declination
0° 00' 00"
Sunlit
Object was in daylight at epoch
Visualization orbit readout
Latitude
Unknown
Longitude
Unknown
Altitude
Unknown
Speed
Unknown
Apparent Right ascension
Unknown
Apparent Declination
Unknown
Sunlit
N/A
Visualization observer readout
Local Sidereal Time
08:41:58
Azimuth
Unknown
Elevation
Unknown
Doppler factor
Unknown
Orbital elements
Apogee altitude
566.875 km
Perigee altitude
472.547 km
Semi-major axis
6,897.848 km
Eccentricity
0.00684
Inclination
64.0733°
RAAN
20.6974°
Arg. of periapsis
304.2354°
True anomaly
55.87646°
Mean anomaly
55.2297°
Eccentric anomaly
55.55276°
Mean motion
3.78855 °/min
Orbital period
95.02 mins
BSTAR
0.00013625
Loading maneuver chart data...
Computing Atmospheric mass density...
Loading historical data...
Loading historical data...
Loading historical data...
Loading historical data...
Loading historical data...
Loading historical data...
Loading historical data...
Other satellites on launch #165 in the year 2024 (2024-09-14 UTC)

Documentation

Showing up to 5 results
|